Stations météo

réclame
Mon MeteoGroup
Europlatform, Pays-Bas (6321): Température de l'air & dewpoint: 14.11.2017 01:00:00 - 20.11.2017 01:00:00 (CET)Europlatform, Pays-Bas (6321): water temperature: 14.11.2017 01:00:00 - 20.11.2017 01:00:00 (CET)Europlatform, Pays-Bas (6321): Vitesse du vent & gusts: 14.11.2017 01:00:00 - 20.11.2017 01:00:00 (CET)Europlatform, Pays-Bas (6321): Direction du vent: 14.11.2017 01:00:00 - 20.11.2017 01:00:00 (CET)Europlatform, Pays-Bas (6321): reduced air pressure: 14.11.2017 01:00:00 - 20.11.2017 01:00:00 (CET)Europlatform, Pays-Bas (6321): visibility: 14.11.2017 01:00:00 - 20.11.2017 01:00:00 (CET)
Date & Time tt [°C] td [°C] tw [°C] ff [km/h] ff [knt] fx [km/h] fx [knt] dd ppp [hPa] vv [km]
20.11.2017 01:00:00 - - - - - - - - - -
20.11.2017 00:00:00 8,0 1,0 12,4 26 14 32 18 W 1022,1 10
19.11.2017 23:00:00 8,0 2,0 12,4 28 15 29 16 W 1022,4 10
19.11.2017 22:00:00 8,0 2,0 12,5 24 13 - - W 1022,4 10
19.11.2017 21:00:00 9,0 2,0 12,5 29 16 36 19 W 1022,4 10
19.11.2017 20:00:00 8,0 2,0 12,6 31 17 36 19 W 1021,9 10
19.11.2017 19:00:00 9,0 3,0 12,6 35 19 - - W 1022,0 10
19.11.2017 18:00:00 9,0 2,0 12,6 39 21 43 23 WNW 1021,7 10
19.11.2017 17:00:00 9,0 3,0 12,6 37 20 43 23 WNW 1021,4 10
19.11.2017 16:00:00 9,0 3,0 12,6 41 22 - - W 1021,2 10
19.11.2017 15:00:00 9,0 4,0 12,6 41 22 43 23 WNW 1021,0 10
19.11.2017 14:00:00 9,0 4,0 12,6 42 23 47 25 WNW 1020,9 10
19.11.2017 13:00:00 9,0 5,0 12,6 44 24 - - WNW 1020,7 10
19.11.2017 12:00:00 9,0 4,0 12,6 44 24 50 27 WNW 1020,4 10
19.11.2017 11:00:00 9,0 4,0 12,7 46 25 54 29 WNW 1020,2 10
19.11.2017 10:00:00 9,0 5,0 12,6 46 25 - - WNW 1019,6 10
19.11.2017 09:00:00 8,0 4,0 12,7 34 18 58 31 NW 1019,1 10
19.11.2017 08:00:00 9,0 4,0 12,7 46 25 54 29 WNW 1018,4 10
19.11.2017 07:00:00 9,0 4,0 12,7 46 25 - - WNW 1018,0 10
19.11.2017 06:00:00 9,0 4,0 12,7 44 24 50 27 WNW 1017,7 10
19.11.2017 05:00:00 9,0 4,0 12,7 44 24 50 27 WNW 1017,6 10
19.11.2017 04:00:00 9,0 3,0 12,7 48 26 - - WNW 1017,4 10
19.11.2017 03:00:00 9,0 2,0 12,7 48 26 50 27 WNW 1017,3 10
19.11.2017 02:00:00 8,0 3,0 12,7 50 27 61 33 WNW 1017,1 10
19.11.2017 01:00:00 9,0 0,0 12,7 48 26 - - WNW 1017,0 10
19.11.2017 00:00:00 9,0 -1,0 12,8 48 26 58 31 WNW 1017,0 10
18.11.2017 23:00:00 9,0 1,0 12,8 52 28 58 31 WNW 1016,9 10
18.11.2017 22:00:00 10,0 1,0 12,8 52 28 - - WNW 1016,9 10
18.11.2017 21:00:00 9,0 4,0 12,7 41 22 54 29 WNW 1017,0 10
18.11.2017 20:00:00 10,0 3,0 12,8 44 24 47 25 WNW 1017,1 10
18.11.2017 19:00:00 10,0 4,0 - 44 24 - - W 1017,2 10
18.11.2017 18:00:00 10,0 6,0 12,8 35 19 54 29 WNW 1017,6 10
18.11.2017 17:00:00 10,0 5,0 12,8 46 25 50 27 WNW 1017,7 10
18.11.2017 16:00:00 10,0 5,0 12,8 44 24 - - W 1018,1 10
18.11.2017 15:00:00 10,0 5,0 12,8 48 26 54 29 W 1018,6 10
18.11.2017 14:00:00 10,0 5,0 12,8 48 26 58 31 W 1018,8 10
18.11.2017 13:00:00 10,0 5,0 12,8 52 28 - - W 1019,2 10
18.11.2017 12:00:00 10,0 5,0 12,8 57 31 58 31 W 1019,5 10
18.11.2017 11:00:00 10,0 5,0 12,8 52 28 58 31 W 1020,0 10
18.11.2017 10:00:00 10,0 4,0 12,9 52 28 - - W 1020,3 10
18.11.2017 09:00:00 10,0 4,0 12,9 50 27 54 29 W 1020,5 10
18.11.2017 08:00:00 9,0 3,0 12,9 52 28 58 31 W 1020,9 10
18.11.2017 07:00:00 9,0 3,0 12,9 44 24 - - W 1021,0 10
18.11.2017 06:00:00 9,0 2,0 12,9 44 24 50 27 W 1021,5 10
18.11.2017 05:00:00 9,0 1,0 13,0 42 23 54 29 W 1022,0 10
18.11.2017 04:00:00 9,0 1,0 13,0 44 24 - - W 1022,8 10
18.11.2017 03:00:00 9,0 1,0 13,0 42 23 47 25 W 1023,5 10
18.11.2017 02:00:00 9,0 2,0 13,0 39 21 43 23 W 1024,0 10
18.11.2017 01:00:00 9,0 2,0 13,0 32 18 - - W 1024,5 44
18.11.2017 00:00:00 9,0 1,0 13,1 34 18 40 21 WSW 1025,3 10
17.11.2017 23:00:00 9,0 1,0 13,1 28 15 40 21 WSW 1025,4 10
17.11.2017 22:00:00 9,0 1,0 13,1 28 15 - - W 1025,7 10
17.11.2017 21:00:00 9,0 2,0 13,1 26 14 32 18 W 1026,1 10
17.11.2017 20:00:00 9,0 1,0 13,1 24 13 32 18 W 1026,5 10
17.11.2017 19:00:00 9,0 2,0 13,1 22 12 - - W 1026,5 10
17.11.2017 18:00:00 9,0 2,0 13,1 24 13 29 16 W 1026,8 10
17.11.2017 17:00:00 9,0 1,0 13,1 28 15 32 18 W 1027,2 10
17.11.2017 16:00:00 10,0 0,0 13,2 22 12 - - W 1027,3 10
17.11.2017 15:00:00 10,0 2,0 13,2 18 10 25 14 W 1027,3 10
17.11.2017 14:00:00 10,0 1,0 13,2 22 12 25 14 W 1028,0 10
17.11.2017 13:00:00 10,0 1,0 13,1 18 10 - - W 1028,2 10
17.11.2017 12:00:00 10,0 2,0 13,1 18 10 22 12 W 1028,7 10
17.11.2017 11:00:00 11,0 2,0 13,1 18 10 22 12 WNW 1028,5 10
17.11.2017 10:00:00 10,0 2,0 13,1 13 7 - - NW 1028,4 10
17.11.2017 09:00:00 10,0 1,0 13,2 11 6 18 10 NW 1028,3 10
17.11.2017 08:00:00 10,0 1,0 13,2 16 9 22 12 NW 1028,0 10
17.11.2017 07:00:00 10,0 0,0 13,1 9 5 - - NW 1027,7 10
17.11.2017 06:00:00 10,0 0,0 13,2 15 8 22 12 NNW 1027,3 10
17.11.2017 05:00:00 10,0 1,0 13,1 16 9 25 14 NNW 1027,2 10
17.11.2017 04:00:00 10,0 1,0 13,1 21 11 - - NNW 1026,9 10
17.11.2017 03:00:00 10,0 2,0 13,1 24 13 29 16 NNW 1026,7 10
17.11.2017 02:00:00 10,0 2,0 13,2 22 12 29 16 NNW 1026,5 10
17.11.2017 01:00:00 10,0 1,0 13,2 28 15 - - NNW 1026,3 10
17.11.2017 00:00:00 11,0 2,0 13,2 29 16 36 19 N 1025,8 10
16.11.2017 23:00:00 11,0 4,0 13,1 34 18 40 21 NNW 1025,2 10
16.11.2017 22:00:00 11,0 4,0 13,2 39 21 - - NNW 1024,9 10
16.11.2017 21:00:00 12,0 5,0 13,2 39 21 40 21 NNW 1024,0 10
16.11.2017 20:00:00 12,0 7,0 13,2 37 20 50 27 NNW 1023,4 10
16.11.2017 19:00:00 12,0 10,0 13,1 39 21 - - WNW 1022,6 10
16.11.2017 18:00:00 13,0 9,0 13,2 35 19 40 21 W 1022,2 10
16.11.2017 17:00:00 13,0 9,0 13,2 37 20 40 21 WSW 1021,9 10
16.11.2017 16:00:00 13,0 10,0 13,1 28 15 - - WSW 1021,6 10
16.11.2017 15:00:00 13,0 10,0 13,2 26 14 29 16 SW 1021,2 10
16.11.2017 14:00:00 13,0 10,0 13,1 28 15 32 18 SW 1021,4 10
16.11.2017 13:00:00 13,0 11,0 12,7 29 16 - - SW 1021,7 10
16.11.2017 12:00:00 13,0 11,0 12,7 31 17 36 19 SW 1022,0 10
16.11.2017 11:00:00 12,0 11,0 12,7 28 15 29 16 SSW 1021,9 9
16.11.2017 10:00:00 12,0 11,0 12,7 28 15 - - SSW 1022,0 8
16.11.2017 09:00:00 12,0 11,0 12,7 28 15 29 16 SSW 1021,8 5
16.11.2017 08:00:00 11,0 10,0 12,7 28 15 29 16 SSW 1021,6 5
16.11.2017 07:00:00 11,0 10,0 12,7 26 14 - - SSW 1021,6 6
16.11.2017 06:00:00 11,0 10,0 12,7 28 15 32 18 S 1021,4 6
16.11.2017 05:00:00 11,0 11,0 12,7 29 16 29 16 S 1021,5 6
16.11.2017 04:00:00 12,0 11,0 12,7 29 16 - - SSW 1022,0 10
16.11.2017 03:00:00 12,0 11,0 12,7 34 18 36 19 SSW 1022,5 10
16.11.2017 02:00:00 12,0 10,0 12,7 31 17 32 18 SSW 1022,8 10
16.11.2017 01:00:00 12,0 11,0 12,7 28 15 - - S 1023,0 10
16.11.2017 00:00:00 12,0 10,0 12,7 29 16 29 16 S 1023,3 9
15.11.2017 23:00:00 12,0 11,0 12,7 24 13 25 14 S 1023,5 10
15.11.2017 22:00:00 12,0 11,0 12,7 22 12 - - S 1023,7 4,9
15.11.2017 21:00:00 12,0 11,0 12,7 21 11 22 12 SSW 1024,2 10
15.11.2017 20:00:00 12,0 10,0 12,7 13 7 18 10 SW 1024,2 10
15.11.2017 19:00:00 11,0 11,0 12,7 8 4 - - SSW 1024,0 9
15.11.2017 18:00:00 12,0 11,0 12,7 11 6 11 6 WSW 1024,1 10
15.11.2017 17:00:00 12,0 11,0 12,7 9 5 11 6 W 1024,1 10
15.11.2017 16:00:00 12,0 11,0 12,7 11 6 - - W 1024,5 10
15.11.2017 15:00:00 12,0 11,0 12,7 15 8 14 8 W 1024,2 10
15.11.2017 14:00:00 12,0 11,0 12,7 13 7 14 8 WSW 1024,1 10
15.11.2017 13:00:00 12,0 10,0 12,7 15 8 - - WSW 1024,5 10
15.11.2017 12:00:00 12,0 10,0 12,7 15 8 22 12 WSW 1024,6 10
15.11.2017 11:00:00 12,0 10,0 12,7 15 8 18 10 SW 1024,8 10
15.11.2017 10:00:00 12,0 11,0 12,7 15 8 - - WSW 1024,5 10
15.11.2017 09:00:00 12,0 11,0 12,7 15 8 22 12 WSW 1024,3 10
15.11.2017 08:00:00 12,0 11,0 12,7 18 10 22 12 WSW 1023,9 10
15.11.2017 07:00:00 12,0 11,0 12,7 16 9 - - WSW 1023,7 10
15.11.2017 06:00:00 12,0 10,0 12,7 18 10 22 12 SW 1023,5 10
15.11.2017 05:00:00 12,0 10,0 12,7 18 10 22 12 SW 1023,4 10
15.11.2017 04:00:00 12,0 10,0 - 18 10 - - SW 1023,3 10
15.11.2017 03:00:00 12,0 10,0 12,7 22 12 25 14 SW 1023,6 10
15.11.2017 02:00:00 12,0 10,0 12,7 22 12 25 14 SW 1023,6 10
15.11.2017 01:00:00 12,0 10,0 12,7 24 13 - - SW 1023,7 10
15.11.2017 00:00:00 12,0 10,0 12,7 28 15 29 16 SW 1023,7 10
14.11.2017 23:00:00 11,0 11,0 12,7 28 15 36 19 SW 1023,6 10
14.11.2017 22:00:00 12,0 10,0 12,7 24 13 - - SW 1023,6 10
14.11.2017 21:00:00 12,0 9,0 12,7 21 11 25 14 WSW 1023,5 10
14.11.2017 20:00:00 12,0 9,0 12,7 24 13 29 16 WSW 1023,5 10
14.11.2017 19:00:00 12,0 9,0 12,7 21 11 - - WSW 1023,3 10
14.11.2017 18:00:00 12,0 9,0 12,7 22 12 32 18 WSW 1023,0 10
14.11.2017 17:00:00 11,0 9,0 12,7 28 15 32 18 WSW 1022,7 10
14.11.2017 16:00:00 11,0 10,0 12,7 31 17 - - WSW 1022,7 10
14.11.2017 15:00:00 11,0 9,0 12,7 31 17 36 19 W 1022,6 5
14.11.2017 14:00:00 10,0 10,0 12,7 29 16 40 21 WSW 1022,5 3,3
14.11.2017 13:00:00 10,0 9,0 12,7 31 17 - - WSW 1022,5 3,0
14.11.2017 12:00:00 10,0 9,0 12,7 34 18 40 21 WSW 1022,5 10
14.11.2017 11:00:00 10,0 8,0 12,7 34 18 40 21 WSW 1022,8 6
14.11.2017 10:00:00 11,0 7,0 12,8 34 18 - - WSW 1022,8 10
14.11.2017 09:00:00 - - 12,7 30 16 - - SW 1022,5 31
14.11.2017 08:00:00 10,0 6,0 12,7 37 20 47 25 SW 1022,1 10
14.11.2017 07:00:00 10,0 4,0 12,7 35 19 - - WSW 1022,4 10
14.11.2017 06:00:00 10,0 4,0 12,7 31 17 40 21 WSW 1022,4 10
14.11.2017 05:00:00 9,0 2,0 12,7 29 16 36 19 WSW 1022,6 10
14.11.2017 04:00:00 9,0 2,0 12,7 31 17 - - WSW 1023,1 10
14.11.2017 03:00:00 9,0 3,0 12,7 35 19 40 21 WSW 1023,5 10
14.11.2017 02:00:00 9,0 3,0 12,8 31 17 36 19 WSW 1023,8 10
14.11.2017 01:00:00 9,0 3,0 12,7 28 15 - - W 1024,0 10

tt = Température de l'air
td = dewpoint
tw = water temperature
ff = Vitesse du vent
fx = gusts
dd = Direction du vent
ppp = reduced air pressure
vv = visibility

stations d'obs. à proximité